Theta_e
327 326 326 324 322 322 319 317 316 315 314 314 314 313 314 314 315 314 314 314 314 312 313 313 313 313 314 313 313 313 313 313 313 312 312 313 312 312 311 309 308 307
325 324 322 320 319 319 317 316 315 314 313 313 313 313 314 314 313 313 312 312 312 311 312 312 312 312 312 312 311 311 310 311 312 315 312 312 312 310 308 306 305 305
321 320 319 318 316 316 315 316 315 314 313 313 314 314 314 314 313 312 312 311 310 310 310 310 310 311 311 311 311 311 311 310 310 311 312 311 311 309 306 304 304 303
319 318 317 316 316 315 315 315 315 315 315 314 314 314 314 313 311 311 310 312 308 308 308 309 309 310 310 311 311 310 310 310 310 309 310 312 310 307 304 304 303 302
316 316 316 315 316 316 315 314 314 314 314 313 313 312 312 310 309 308 308 307 307 306 307 308 309 309 310 309 308 309 310 309 309 309 309 309 307 305 304 302 301 300
316 316 316 315 315 315 314 314 314 313 313 312 311 310 309 308 307 307 306 306 306 306 307 307 307 307 308 307 307 307 307 306 306 306 307 307 304 304 303 301 299 298
315 315 315 315 314 314 313 313 313 313 312 311 310 308 307 306 306 305 305 305 305 306 305 305 306 306 307 307 306 305 304 303 303 303 303 304 305 303 302 300 299 298
314 314 314 314 313 313 312 312 312 311 311 309 308 307 306 305 305 304 304 304 304 303 303 303 303 304 304 305 303 302 301 302 301 301 300 300 300 299 299 300 298 297
313 313 312 312 312 312 311 311 311 310 310 307 306 305 305 304 304 303 303 303 302 301 301 301 302 302 303 302 301 300 299 299 300 299 299 299 298 298 298 298 297 297
312 312 311 311 311 311 311 310 310 308 308 306 305 304 303 303 303 302 302 301 300 300 300 300 301 302 302 301 300 299 298 298 298 298 298 298 298 297 296 296 296 295
311 311 311 310 310 310 310 309 308 307 306 305 304 303 303 302 302 301 300 299 299 298 299 299 300 301 301 300 299 298 298 298 297 297 297 296 296 297 300 296 296 295
310 310 310 310 310 309 308 307 307 306 305 305 304 303 302 301 301 301 300 298 298 298 298 299 300 300 300 299 298 298 298 297 297 296 296 296 295 295 295 296 295 295
310 310 310 310 310 308 307 307 306 305 304 303 303 302 300 300 299 299 299 298 297 298 298 299 300 300 299 298 298 297 297 296 296 295 295 295 294 295 294 294 294 295
309 310 310 310 309 308 307 306 306 305 304 303 302 301 300 300 299 298 298 298 298 298 299 300 299 299 298 298 298 297 297 296 295 295 294 294 294 294 294 294 294 294
309 310 310 309 307 307 306 306 305 304 304 303 302 302 302 301 300 299 298 297 297 297 298 298 299 298 298 297 296 296 295 295 294 294 294 293 293 293 293 293 293 294
309 309 308 307 306 305 305 305 305 304 303 302 301 301 300 299 298 297 297 297 297 297 297 298 298 299 302 300 300 296 294 295 294 294 293 293 293 293 293 293 293 292
308 308 307 305 305 305 305 304 304 304 302 300 299 299 297 298 296 296 296 296 296 297 296 297 297 299 297 295 295 297 295 293 293 293 292 292 292 292 292 293 292 292
308 307 306 306 306 305 304 304 303 302 301 299 299 298 297 296 295 295 295 295 296 296 296 296 297 299 295 295 295 295 298 295 293 293 293 292 292 292 292 292 292 292
307 306 305 305 305 304 303 303 301 300 299 298 298 298 297 296 295 294 294 294 295 295 295 295 294 296 295 295 295 294 295 296 293 293 294 292 292 291 291 291 292 293
306 305 304 304 304 304 303 302 300 299 298 298 298 297 296 295 294 293 293 293 294 294 293 292 293 296 295 295 294 294 294 295 292 293 292 292 292 291 291 291 291 292
306 304 303 304 304 303 302 300 298 297 296 296 295 295 293 292 292 292 292 293 292 293 293 292 293 294 294 294 293 294 294 294 293 294 293 291 291 291 290 290 291 292
305 304 303 302 302 301 299 297 296 295 294 294 294 293 292 291 291 291 291 291 292 293 292 291 291 293 293 293 293 294 295 296 293 292 291 290 290 290 290 290 291 292
305 303 302 301 301 299 297 296 295 294 294 294 292 291 290 290 290 290 291 292 292 292 291 289 290 292 293 293 293 293 293 292 290 291 290 289 289 289 289 290 292 293
304 303 301 300 299 297 296 295 295 294 293 294 292 291 290 290 290 290 290 291 291 290 291 290 288 292 293 293 292 292 293 290 289 290 289 289 289 288 289 289 292 300
302 302 300 299 298 297 296 295 294 294 294 293 292 292 291 291 292 290 290 291 292 292 297 291 289 292 292 292 292 293 293 289 290 290 289 288 288 289 288 289 289 293
302 301 300 299 298 297 296 295 295 294 292 292 292 291 291 290 290 290 289 288 289 289 290 289 289 289 290 291 292 292 293 291 290 289 289 286 287 289 289 287 287 288
Wind_Speed
8 7 7 7 6 7 8 8 6 7 5 5 6 5 6 4 4 5 5 6 5 5 5 5 5 5 5 5 5 5 5 5 5 4 5 6 6 6 7 7 7 6
9 8 8 8 7 7 7 7 7 7 6 5 5 5 5 5 5 6 7 6 5 5 5 5 4 4 4 5 4 5 4 4 5 4 5 6 6 7 8 8 7 6
9 9 10 10 9 10 9 7 7 7 6 5 5 5 6 5 6 7 7 6 6 6 5 4 4 4 4 4 4 4 4 5 5 4 5 6 7 8 7 7 7 7
8 8 10 10 10 11 9 9 7 6 6 6 6 5 6 6 7 7 7 6 6 5 4 4 4 4 4 4 4 4 4 4 4 4 5 7 8 8 7 6 7 7
10 10 9 10 9 9 9 9 8 7 7 6 7 7 7 7 7 7 6 5 5 5 5 5 5 4 4 4 4 5 5 6 6 5 7 9 8 7 6 7 7 8
10 10 9 9 9 10 9 9 8 8 8 8 8 7 7 7 7 6 6 6 5 5 5 4 4 3 4 5 6 6 6 7 7 8 9 9 8 7 6 7 7 7
11 10 10 9 10 10 10 8 7 7 8 8 8 7 7 7 7 6 5 5 5 5 5 4 5 6 5 5 6 7 7 7 8 9 9 7 7 7 6 6 6 6
11 10 10 9 11 9 9 8 8 8 8 8 9 6 6 7 6 5 5 5 6 5 5 6 6 6 5 5 7 8 7 6 7 9 9 8 7 7 6 6 6 6
11 10 10 11 11 9 9 8 8 9 8 10 8 7 6 6 5 6 5 6 6 5 6 7 7 6 5 6 7 8 8 7 7 8 7 7 7 6 6 5 6 6
11 10 11 10 10 8 9 8 9 9 8 9 7 6 7 5 5 6 6 6 6 6 7 7 7 6 6 6 7 7 7 7 7 7 7 6 6 6 5 5 5 5
11 10 11 10 9 8 9 9 9 8 8 8 8 8 6 6 6 5 6 6 6 6 7 7 6 6 7 6 6 6 7 7 7 7 6 6 6 5 5 4 5 4
11 10 10 10 9 8 9 9 9 8 8 7 8 8 6 5 6 5 6 7 6 6 7 6 5 6 6 6 6 6 7 7 6 6 6 6 5 4 4 4 4 4
10 10 9 9 9 9 9 8 9 8 8 7 6 7 7 7 6 7 6 6 6 6 6 6 6 6 6 6 6 6 7 7 6 6 5 5 4 4 4 4 4 4
9 9 9 9 9 9 10 9 9 9 8 7 6 7 7 7 7 8 5 6 6 6 5 5 6 6 5 6 6 6 6 6 5 5 5 5 5 5 4 5 5 5
9 8 8 9 10 11 10 10 10 9 7 6 6 6 6 6 6 7 8 8 6 6 5 4 6 6 5 6 7 6 5 5 5 5 5 5 5 5 5 6 6 5
9 8 9 10 10 11 10 10 10 9 8 6 6 6 6 6 6 6 7 7 7 6 5 5 5 4 8 11 8 5 4 4 5 5 4 5 5 6 6 6 5 5
8 9 10 11 11 11 11 11 11 9 8 7 6 6 6 5 6 7 6 5 6 6 6 5 5 5 11 10 10 8 5 4 5 4 4 5 5 6 6 6 6 5
8 8 10 11 11 11 11 11 10 10 9 8 7 7 5 5 7 6 6 5 6 6 6 5 4 7 11 9 8 8 6 4 4 4 5 5 5 6 5 5 6 6
8 10 10 11 11 11 11 11 10 9 9 8 7 5 5 6 6 6 5 5 6 7 5 4 4 7 9 9 8 8 7 5 4 4 6 6 6 5 5 5 6 6
8 9 10 10 11 11 11 10 10 9 7 7 7 6 7 6 6 6 5 5 5 5 5 4 3 5 8 7 7 6 6 5 4 4 4 5 5 5 4 5 5 5
9 9 10 10 11 11 10 10 9 8 8 6 6 6 6 6 6 6 4 4 4 4 5 4 2 5 8 8 6 6 6 6 4 5 5 5 5 5 5 4 4 5
10 10 10 10 11 11 11 10 8 8 8 6 6 6 5 5 4 5 5 5 4 5 5 4 1 5 9 8 7 6 7 5 5 5 5 5 6 5 5 5 4 4
10 10 10 11 12 12 11 10 9 7 6 6 7 6 6 5 4 4 4 6 5 6 7 4 3 2 10 9 8 8 6 5 4 5 5 5 4 4 4 5 5 4
9 10 11 11 11 12 10 8 7 6 6 5 9 7 6 5 4 5 4 5 6 6 6 6 4 3 9 9 9 8 6 4 3 5 5 5 5 4 5 5 5 10
8 9 10 11 11 11 10 10 8 7 6 5 7 7 6 4 5 7 6 5 6 6 9 8 5 4 8 11 9 8 5 3 4 5 6 5 5 5 4 6 5 5
8 9 10 11 11 10 9 9 7 7 7 7 6 6 6 5 5 6 7 5 4 5 5 5 6 4 4 9 9 8 7 5 4 6 4 4 4 4 6 5 4 5
Wind_Direction
130 129 127 122 121 122 127 123 116 116 113 115 113 113 104 101 86 84 75 61 63 67 64 67 70 73 71 69 71 73 73 76 71 65 70 71 65 64 60 54 48 46
123 123 116 111 109 106 104 109 116 116 117 111 105 101 91 92 70 70 70 71 63 61 61 65 70 79 77 75 73 79 71 67 69 58 74 74 71 64 59 54 51 42
123 120 122 124 121 115 113 111 111 113 114 111 101 99 96 77 83 79 80 77 71 62 58 57 55 49 61 73 80 83 82 75 73 65 74 74 70 68 60 56 49 42
106 112 115 112 115 118 117 114 108 107 109 106 104 94 87 90 86 83 77 75 76 65 58 57 57 53 63 71 77 76 75 70 68 68 72 72 71 68 59 55 49 43
111 99 102 114 114 112 113 112 112 112 108 104 88 85 92 93 91 86 85 77 79 74 64 66 61 62 66 67 65 63 50 53 46 52 66 73 69 63 52 50 45 40
101 107 112 111 114 113 108 108 111 110 105 91 94 94 93 93 92 93 92 90 79 79 76 70 71 59 61 59 56 58 60 58 52 58 65 77 74 62 56 50 47 42
110 110 108 105 101 101 104 104 104 99 89 98 95 89 96 91 90 90 87 87 81 74 73 66 55 43 37 57 69 69 63 62 59 61 63 59 66 60 53 49 44 42
104 103 103 102 102 101 103 105 98 88 99 92 89 84 88 94 92 90 88 86 85 75 69 64 58 53 51 64 72 71 64 61 63 66 68 65 63 57 47 44 42 40
105 104 104 101 101 103 104 99 90 94 93 94 91 88 77 82 92 93 89 88 82 73 70 66 63 66 59 72 73 75 75 69 68 70 71 70 66 58 51 43 43 39
104 107 104 104 104 109 105 92 95 95 94 91 91 90 89 79 76 83 85 85 83 75 71 74 73 74 74 72 77 80 81 78 74 74 74 73 72 64 52 45 45 39
109 108 109 111 115 110 98 97 100 101 98 101 99 90 86 87 77 73 83 78 80 81 80 79 83 89 88 82 79 81 84 84 84 82 76 70 64 58 50 47 39 40
111 112 115 120 114 98 96 103 105 102 99 96 103 100 89 80 86 78 78 83 82 84 87 91 90 91 90 90 89 86 85 84 83 79 74 68 62 53 49 38 37 27
119 122 123 115 106 103 104 103 100 99 97 98 97 101 101 95 86 84 72 83 82 86 91 97 94 90 93 93 90 87 88 85 79 74 69 65 56 52 43 37 32 22
127 127 122 113 103 104 107 106 102 98 97 99 100 97 96 97 97 94 87 86 88 89 92 97 98 96 93 89 87 89 88 81 80 76 71 61 52 43 37 34 28 22
126 121 117 108 106 111 113 109 103 101 100 99 98 98 93 93 96 102 104 95 86 89 93 92 92 94 94 98 98 87 85 86 80 76 69 64 52 42 35 32 27 18
126 118 110 104 106 110 112 110 108 107 104 98 92 93 94 93 89 89 96 105 106 100 95 91 88 89 98 97 98 104 94 90 83 73 68 62 54 42 32 30 22 20
122 117 114 113 118 118 117 115 115 115 112 106 101 95 91 89 92 93 94 101 109 109 98 91 94 100 102 100 101 102 100 91 86 76 67 60 55 49 37 21 15 17
112 111 115 117 117 119 117 116 117 115 115 112 107 102 95 93 89 93 98 105 102 98 100 106 108 116 112 113 110 101 94 91 85 77 63 55 48 44 33 25 17 16
113 115 119 119 118 118 118 118 118 116 115 112 107 106 99 91 96 97 97 100 104 106 108 111 120 134 125 120 110 100 91 84 75 66 58 45 38 32 30 26 21 20
121 126 128 126 124 122 121 119 116 114 110 110 113 107 104 100 92 94 97 101 108 110 108 102 102 128 125 117 104 86 69 63 58 54 45 39 30 26 28 28 24 27
129 128 126 124 120 118 117 115 115 113 110 113 114 116 113 109 109 105 101 103 103 105 103 92 98 124 115 107 101 84 63 58 43 39 36 30 29 28 29 27 26 32
133 131 124 118 118 117 116 117 118 121 122 120 108 97 89 92 80 93 105 106 107 103 92 79 45 142 124 120 109 89 63 47 44 40 33 30 29 22 21 19 24 37
134 127 121 122 122 120 120 121 121 117 114 116 105 103 104 96 103 100 113 115 108 99 96 80 49 134 126 125 117 94 68 45 39 40 35 34 23 15 17 20 20 41
129 125 124 124 123 124 124 122 120 119 121 126 121 120 109 113 113 98 82 99 104 99 107 98 64 68 119 111 98 83 89 80 58 64 42 35 16 21 24 26 15 30
130 127 125 124 123 126 127 127 128 126 119 108 106 106 111 112 104 98 89 80 91 100 101 96 89 71 99 107 98 96 91 83 76 61 50 24 22 16 14 28 12 6
134 129 125 125 127 126 123 124 124 115 116 109 100 106 110 103 96 96 93 77 72 85 78 90 97 71 73 101 111 106 105 90 65 64 47 29 21 32 23 6 6 1